Location: Arthurs Seat
(13.1500°N, 59.6000°W)
Time: 23:10:42
(UTC+00:00)

FREGAT/IRIS - Pass Details

Date: 25 August 2019
Orbit: 349 x 353 km, 97.0° (Epoch: 15 September)

Event Time Altitude Azimuth Distance (km) Brightness Sun altitude
Exits shadow 23:32:06 26° 10° (N) 727 4.0 -19.3°
Drops below altitude 10° 23:33:32 10° 359° (N) 1,310 5.4 -19.7°
Sets 23:35:27 0° 355° (N) 2,151 6.6 -20.1°
